Location: Casa Rossa
(45.2389°N, 12.2056°E)
Time: 23:45:41
(UTC+00:00)

Resurs 1-4 Rocket - Pass Details

Date: 14 July 2020
Orbit: 799 x 814 km, 98.6° (Epoch: 14 August)

Event Time Altitude Azimuth Distance (km) Brightness Sun altitude
Rises 01:21:59 0° 9° (N) 3,348 6.6 -17.3°
Reaches altitude 10° 01:24:23 10° 5° (N) 2,411 5.6 -17.1°
Maximum altitude 01:29:33 54° 290° (WNW) 982 2.4 -16.7°
Enters shadow 01:32:22 26° 224° (SW) 1,544 3.0 -16.4°
